Location: Göttingen
(51.5413°N, 9.9158°E)
Time: 17:17:56
(UTC+02:00)

EO-88 - Pass Details

Date: 07 July 2022
Orbit: 453 x 461 km, 97.3° (Epoch: 14 August)

Event Time Altitude Azimuth Distance (km) Brightness Sun altitude
Exits shadow 23:51:40 - 220° (SW) 2,138 ? -13.1°
Reaches altitude 10° 23:53:34 10° 241° (WSW) 1,624 ? -13.3°
Maximum altitude 23:55:18 13° 271° (W) 1,439 ? -13.4°
Drops below altitude 10° 23:57:02 10° 301° (WNW) 1,629 ? -13.5°
Sets 00:00:01 0° 330° (NNW) 2,509 ? -13.6°
